Погода в Вильче

Украина / Киевская область     51°21′38″N   29°25′26″E
темп.,
°C
ветер,
м/с
пор.,
м/с
влажн.,
%
обл.,
%
осадки,
мм/ч
давл.,
гПа
погр.,
м
20 апреля, вт
вт2000:00+6всв35888 0.1 101689
03:00+4св33947 0.1 101555
06:00+5св2696100 0.0 1014209
09:00+7св358675 0.1 1013573
12:00+10св466492 0.3 10111342
15:00+12ссв455559 0.3 10101530
18:00+10ссв566065 0.2 10101084
21:00+6с33868 0.3 101043
21 апреля, ср
ср2100:00+4ссз349474 0.0 101083
03:00+5сз369198 0.0 1010178
06:00+5сз3792100 0.2 1010264
09:00+7сз467296 0.2 1011522
12:00+10зсз456478 0.1 10111231
15:00+10зюз556883 0.3 1012768
18:00+11юз5665100 0.1 1012663
21:00+7ю46827 0.1 101285
22 апреля, чт
чт2200:00+6ююз3690100 0.0 101390
03:00+7ююз388955 0.0 1013149
06:00+6юз499332 0.0 1013198
09:00+11юз687747 0.2 1014516
12:00+15юз68546 0.3 10141647
15:00+14юз6867100 1.7 1014900
18:00+13юз6107499 1.8 1013634
21:00+9з2294100 3.6 101428
23 апреля, пт
пт2300:00+9юз4792100 0.8 1014290
03:00+6сз488998 0.9 1015466
06:00+5сз5786100 0.4 1016551
09:00+3ю1193100 6.3 1017203
12:00+6з3573100 0.8 1016944
15:00+8зсз4655100 0.8 10161620
18:00+8зсз4658100 0.1 1016854
21:00+5зсз227226 0.4 101611
24 апреля, сб
сб2400:00+4з2382100 0.4 101683
03:00+2зюз4108820 0.6 1016206
06:00+1з410905 0.0 1016254
09:00+4зсз6971100 0.0 1017946
12:00+6з7959100 0.3 10171772
15:00+6з7857100 0.6 10171573
18:00+7зсз685463 0.1 10171449
21:00+3зюз367629 0.1 1017110